STARLINK-1300 (45374 NORAD) Tracking and Keplerian Element Data

This shows tracking and keplerian element data for the satellite.

Feedback or suggestion? Click here.




ElementValue
Catalog45374
NameSTARLINK-1300
Epoch Orbit176
Epoch Day188.91667824
Epoch Year2020
RAAN107.1688
Inclination53.0004
Eccentricity0.0001463
Argument of Perigee91.2448
Mean Anonmoly313.1941
Mean Motion15.05618352
Decay Rate-0.00031429
L11 45374U 20019Q 20188.91667824 -.00031429 00000-0 -21452-2 0 9994
L22 45374 53.0004 107.1688 0001463 91.2448 313.1941 15.05618352 1762

Live tracking and technical data element details for STARLINK-1300 (NORAD 45374). STARLINK-1300 can be tracked NOW for your location showing map with azimuth and elevation plus other details from your city location.

Track the satellite on the map from your city or location and see movement details for azimuth, elevation, latitude, longitude, range, height, and movement on the map or in text.







IsCatalogInMostPopularTable: catalog: 45374, numindb: 41
Update: records affected: 1



GetName: 45374 STARLINK-1300

Hit Count: updated at: Wed, 08 Jul 2020 03:22:05 GMT